Flag for Brazil Weather past 2 weeks in Porto Alegre, Rio Grande do Sul, Brazil

Now
63 °F

Sunny.


Feels Like: 63 °F
Forecast: 43 / 64 °F
Wind: 13 mph from Southeast

Location: Porto Alegre Aero-Porto

Current Time: Jul 28, 2014 at 1:48:31 PM

Latest Report: Jul 28, 2014 at 1:00 PM


Visibility: 10 mi

Pressure: 30.42 "Hg

Humidity: 64%

Dew point: 50 °F

Location of Porto AlegreLocation

Historic Weather in Porto Alegre — Graph

°F

Porto Alegre temperature yesterday

Maximum temperature yesterday: 61 °F (at 3:00 PM)
Minimum temperature yesterday: 41 °F (at 4:00 AM)
Average temperature yesterday: 50 °F

Past Weeks' High & Low Weather Summary

 TemperatureHumidityPressure
High81 °F (Jul 22, 2:00 PM)100% (Jul 14, 1:00 AM)30.48 "Hg (Jul 14, 1:00 AM)
Low39 °F (Jul 18, 7:00 AM)32% (Jul 22, 2:00 PM)29.65 "Hg (Jul 23, 7:00 PM)
Average58 °F82%30.13 "Hg
* Reported Jul 13 12:00 Noon — Jul 28 12:00 Noon, Porto Alegre, Weather by CustomWeather, © 2014

Note: Actual official high and low records may vary slightly from our data, if they occured in-between our weather recording intervals... More about our weather records

Advertising

Porto Alegre weather history for previous 24 hours

 ConditionsComfort  
Time TempWeatherWind HumidityBarometerVisibility
12:00 PM
Jul 28
61 °FSunny.13 mph68%30.45 "Hg10 mi
11:00 AM57 °FSunny.14 mph77%30.45 "Hg10 mi
10:00 AM54 °FSunny.7 mph82%30.48 "Hg10 mi
9:00 AM52 °FSunny.5 mph82%30.45 "Hg10 mi
8:00 AM45 °FSunny.5 mph93%30.45 "Hg10 mi
7:00 AM43 °FSunny.2 mph100%30.42 "Hg10 mi
6:00 AM43 °FClear.2 mph100%30.42 "Hg10 mi
5:00 AM45 °FClear.5 mph93%30.42 "Hg10 mi
4:00 AM45 °FClear.5 mph93%30.42 "Hg10 mi
3:00 AM46 °FClear.6 mph87%30.42 "Hg10 mi
2:00 AM48 °FClear.7 mph82%30.42 "Hg10 mi
1:00 AM48 °FClear.6 mph82%30.45 "Hg10 mi
12:00 AM50 °FClear.8 mph76%30.42 "Hg10 mi
11:00 PM
Jul 27
50 °FClear.8 mph82%30.45 "Hg10 mi
10:00 PM50 °FClear.8 mph82%30.42 "Hg10 mi
9:00 PM50 °FClear.7 mph82%30.42 "Hg10 mi
8:00 PM54 °FClear.12 mph72%30.39 "Hg10 mi
7:00 PM54 °FClear.8 mph77%30.39 "Hg10 mi
6:00 PM55 °FClear.5 mph72%30.39 "Hg10 mi
5:00 PM59 °FClear.8 mph63%30.36 "Hg10 mi
4:00 PM61 °FPassing clouds.3 mph63%30.36 "HgN/A
3:00 PM61 °FPassing clouds.5 mph63%30.36 "HgN/A
2:00 PM59 °FPassing clouds.8 mph68%30.36 "HgN/A
1:00 PM59 °FScattered clouds.5 mph68%30.39 "HgN/A
Weather by CustomWeather, © 2014

See weather overviewHow to use our weather pages